sat.trackr.live / text

‹ back to catalog

STARLINK-4425

NORAD 53208 · 2022-084V

PAYLOAD ACTIVE UNKNOWN

§ Identity

Operator
Country
US
Launch date
2022-07-22
Launch site
AFWTR
Launch vehicle
Mass (kg)
RCS (m²)

Purposes: comms

External: N2YO · Heavens-Above · Gunter

§ Orbital elements

Epoch: 2026-05-25T02:35:01.856832Z

Period
95.64 min
Inclination
97.4512°
Eccentricity
0.0001350
Mean motion
15.05661597 rev/d
Perigee alt
548.5 km
Apogee alt
550.4 km
Semi-major
6,927.6 km
B*
-1.2770e-4
RAAN
205.0397°
Arg perigee
143.2846°
Mean anomaly
216.8474°
Rev number
21,080

§ Raw data

STARLINK-44251 53208U 22084V   26145.10766038 -.00001901  00000+0 -12770-3 0  99952 53208  97.4512 205.0397 0001350 143.2846 216.8474 15.05661597210809

JSON: /api/v1/satellites/53208 · /tle

For live sub-satellite position, see the globe view (requires WebGL).

§ Visibility from observer

Set your observer location to see the next 7 days of passes ≥ 10°. The values pass through the URL so the page stays shareable.

No JS? Fill the form by hand. The geolocation button needs JavaScript.